Location: Bullenkuhlen
(53.7689°N, 9.7495°E)
Time: 08:13:45
(UTC+00:00)

Cosmos 1153 Rocket - Pass Details

Date: 09 April 2020
Orbit: 954 x 1006 km, 82.9° (Epoch: 01 June)

Event Time Altitude Azimuth Distance (km) Brightness Sun altitude
Rises 21:58:42 0° 349° (NNW) 3,704 8.8 -25.7°
Reaches altitude 10° 22:01:13 10° 350° (N) 2,759 7.8 -25.9°
Maximum altitude 22:07:35 84° 80° (E) 1,009 4.4 -26.2°
Enters shadow 22:08:38 65° 157° (SSE) 1,096 4.4 -26.3°
